LEMUR-2-GREGROBINSON (44411 NORAD) Tracking and Keplerian Element Data

This shows tracking and keplerian element data for the satellite.

Feedback or suggestion? Click here.




ElementValue
Catalog44411
NameLEMUR-2-GREGROBINSON
Epoch Orbit154
Epoch Day198.87704754
Epoch Year2019
RAAN160.5812
Inclination97.4924
Eccentricity0.0023128
Argument of Perigee203.4984
Mean Anonmoly156.5191
Mean Motion15.11668905
Decay Rate4.78E-06
L11 44411U 19038AB 19198.87704754 .00000478 00000-0 31768-4 0 9993
L22 44411 97.4924 160.5812 0023128 203.4984 156.5191 15.11668905 1540

Live tracking and technical data element details for LEMUR-2-GREGROBINSON (NORAD 44411). LEMUR-2-GREGROBINSON can be tracked NOW for your location showing map with azimuth and elevation plus other details from your city location.

Track the satellite on the map from your city or location and see movement details for azimuth, elevation, latitude, longitude, range, height, and movement on the map or in text.







IsCatalogInMostPopularTable: catalog: 44411, numindb: 5
Update: records affected: 1



GetName: 44411 LEMUR-2-GREGROBINSON

Hit Count: updated at: Fri, 19 Jul 2019 07:45:56 GMT